,,,PA_Meas_PMT16A,,PR_Meas_QMR101_102,,RH_Meas_QMH101,,SR_Meas_QMS101,,TA_Meas_QMH101,,GenWind,,GenWind,
date,time,status,PA,status,PR,status,RH,status,SR,status,TA,status,DirAvg,status,SpdAvg,
2009-12-05, 00:00:04,VALID,1010.64,VALID,0,VALID,57.4296,VALID,0.105969,VALID,24.2573,VALID,75,VALID,0.8,
2009-12-05, 00:01:04,VALID,1010.67,VALID,0,VALID,57.4143,VALID,0.105969,VALID,24.2591,VALID,93,VALID,1.15625,
2009-12-05, 00:02:04,VALID,1010.67,VALID,0,VALID,57.4067,VALID,0,VALID,24.2573,VALID,49,VALID,0.915234,
2009-12-05, 00:03:04,VALID,1010.66,VALID,0,VALID,57.3914,VALID,0.105969,VALID,24.2378,VALID,105,VALID,1.39844,
2009-12-05, 00:04:04,VALID,1010.66,VALID,0,VALID,57.3762,VALID,0,VALID,24.2378,VALID,94,VALID,0.542188,
2009-12-05, 00:05:04,VALID,1010.64,VALID,0,VALID,57.3685,VALID,0,VALID,24.2378,VALID,93,VALID,0.835938,
2009-12-05, 00:06:04,VALID,1010.62,VALID,0,VALID,57.3609,VALID,0,VALID,24.2378,VALID,90,VALID,0.758984,
2009-12-05, 00:07:04,VALID,1010.63,VALID,0,VALID,57.3838,VALID,0,VALID,24.2378,VALID,83,VALID,0.960547,
2009-12-05, 00:08:04,VALID,1010.62,VALID,0,VALID,57.3533,VALID,0,VALID,24.2591,VALID,84,VALID,0.475781,
2009-12-05, 00:09:04,VALID,1010.64,VALID,0,VALID,57.3609,VALID,0.105969,VALID,24.2378,VALID,83,VALID,1.0875,
2009-12-05, 00:10:04,VALID,1010.61,VALID,0,VALID,57.3533,VALID,0.105969,VALID,24.2573,VALID,79,VALID,0.723828,
2009-12-05, 00:11:04,VALID,1010.62,VALID,0,VALID,57.3457,VALID,0,VALID,24.2396,VALID,63,VALID,0.621484,
2009-12-05, 00:12:04,VALID,1010.6,VALID,0,VALID,57.3609,VALID,0,VALID,24.2396,VALID,75,VALID,0.647656,
2009-12-05, 00:13:04,VALID,1010.61,VALID,0,VALID,57.3533,VALID,0,VALID,24.2415,VALID,68,VALID,0.740234,
2009-12-05, 00:14:04,VALID,1010.6,VALID,0,VALID,57.3609,VALID,0,VALID,24.2202,VALID,62,VALID,0.501562,
2009-12-05, 00:15:04,VALID,1010.62,VALID,0,VALID,57.3609,VALID,0,VALID,24.2202,VALID,58,VALID,0.526953,
2009-12-05, 00:16:04,VALID,1010.59,VALID,0,VALID,57.3838,VALID,0,VALID,24.2007,VALID,69,VALID,0.428125,
2009-12-05, 00:17:04,VALID,1010.59,VALID,0,VALID,57.399,VALID,0,VALID,24.2007,VALID,85,VALID,0.248047,
2009-12-05, 00:18:04,VALID,1010.6,VALID,0,VALID,57.4219,VALID,0,VALID,24.2007,VALID,78,VALID,0.471875,
2009-12-05, 00:19:04,VALID,1010.61,VALID,0,VALID,57.4296,VALID,0,VALID,24.222,VALID,81,VALID,0.444141,
2009-12-05, 00:20:04,VALID,1010.57,VALID,0,VALID,57.4524,VALID,0,VALID,24.2007,VALID,76,VALID,0.609766,
2009-12-05, 00:21:04,VALID,1010.6,VALID,0,VALID,57.4524,VALID,0,VALID,24.2007,VALID,71,VALID,0.591016,
2009-12-05, 00:22:04,VALID,1010.61,VALID,0,VALID,57.4601,VALID,0,VALID,24.2007,VALID,71,VALID,0.211328,
2009-12-05, 00:23:04,VALID,1010.6,VALID,0,VALID,57.4906,VALID,0,VALID,24.222,VALID,71,VALID,0.0121094,
2009-12-05, 00:24:04,VALID,1010.61,VALID,0,VALID,57.5134,VALID,0,VALID,24.222,VALID,91,VALID,0.60625,
2009-12-05, 00:25:04,VALID,1010.62,VALID,0,VALID,57.5058,VALID,0,VALID,24.2007,VALID,101,VALID,0.566016,
2009-12-05, 00:26:04,VALID,1010.63,VALID,0,VALID,57.5134,VALID,0,VALID,24.1812,VALID,106,VALID,0.785937,
2009-12-05, 00:27:04,VALID,1010.62,VALID,0,VALID,57.4982,VALID,0,VALID,24.1812,VALID,100,VALID,0.542969,
2009-12-05, 00:28:04,VALID,1010.63,VALID,0,VALID,57.4829,VALID,0,VALID,24.2007,VALID,96,VALID,0.953906,
2009-12-05, 00:29:04,VALID,1010.66,VALID,0,VALID,57.4677,VALID,0,VALID,24.2007,VALID,93,VALID,0.848047,
2009-12-05, 00:30:04,VALID,1010.67,VALID,0,VALID,57.4601,VALID,0,VALID,24.2025,VALID,86,VALID,0.558984,
2009-12-05, 00:31:04,VALID,1010.7,VALID,0,VALID,57.4448,VALID,0,VALID,24.2415,VALID,81,VALID,0.708984,
2009-12-05, 00:32:04,VALID,1010.67,VALID,0,VALID,57.4524,VALID,0,VALID,24.2415,VALID,94,VALID,0.742969,
2009-12-05, 00:33:04,VALID,1010.68,VALID,0,VALID,57.4067,VALID,0,VALID,24.2202,VALID,78,VALID,0.734766,
2009-12-05, 00:34:04,VALID,1010.68,VALID,0,VALID,57.4067,VALID,0,VALID,24.2202,VALID,89,VALID,0.582812,
2009-12-05, 00:35:04,VALID,1010.64,VALID,0,VALID,57.399,VALID,0,VALID,24.2415,VALID,101,VALID,0.0703125,
2009-12-05, 00:36:04,VALID,1010.64,VALID,0,VALID,57.3914,VALID,0,VALID,24.2007,VALID,102,VALID,0.496875,
2009-12-05, 00:37:04,VALID,1010.64,VALID,0,VALID,57.399,VALID,0,VALID,24.2007,VALID,119,VALID,0.878125,
2009-12-05, 00:38:04,VALID,1010.63,VALID,0,VALID,57.3838,VALID,0,VALID,24.1812,VALID,121,VALID,0.395312,
2009-12-05, 00:39:04,VALID,1010.62,VALID,0,VALID,57.4067,VALID,0,VALID,24.1812,VALID,105,VALID,0.663672,
2009-12-05, 00:40:04,VALID,1010.6,VALID,0,VALID,57.4524,VALID,0,VALID,24.183,VALID,105,VALID,0.0121094,
2009-12-05, 00:41:04,VALID,1010.59,VALID,0,VALID,57.4601,VALID,0,VALID,24.1812,VALID,105,VALID,0.399609,
2009-12-05, 00:42:04,VALID,1010.57,VALID,0,VALID,57.4829,VALID,0,VALID,24.1617,VALID,105,VALID,0.540234,
2009-12-05, 00:43:04,VALID,1010.52,VALID,0,VALID,57.4753,VALID,0,VALID,24.1422,VALID,123,VALID,1.06211,
2009-12-05, 00:44:04,VALID,1010.52,VALID,0,VALID,57.4753,VALID,0,VALID,24.1617,VALID,123,VALID,0.932422,
2009-12-05, 00:45:04,VALID,1010.51,VALID,0,VALID,57.4448,VALID,0,VALID,24.1422,VALID,116,VALID,0.471484,
2009-12-05, 00:46:04,VALID,1010.46,VALID,0,VALID,57.4677,VALID,0,VALID,24.1422,VALID,113,VALID,0.810547,
2009-12-05, 00:47:04,VALID,1010.44,VALID,0,VALID,57.4601,VALID,0,VALID,24.1227,VALID,102,VALID,0.657422,
2009-12-05, 00:48:04,VALID,1010.46,VALID,0,VALID,57.4677,VALID,0,VALID,24.1032,VALID,127,VALID,0.610547,
2009-12-05, 00:49:04,VALID,1010.44,VALID,0,VALID,57.4906,VALID,0,VALID,24.1245,VALID,131,VALID,0.747266,
2009-12-05, 00:50:04,VALID,1010.4,VALID,0,VALID,57.5211,VALID,0,VALID,24.1032,VALID,131,VALID,0.513672,
2009-12-05, 00:51:04,VALID,1010.43,VALID,0,VALID,57.5439,VALID,0,VALID,24.0837,VALID,130,VALID,0.714063,
2009-12-05, 00:52:04,VALID,1010.4,VALID,0,VALID,57.5973,VALID,0,VALID,24.0837,VALID,130,VALID,0.478906,
2009-12-05, 00:53:04,VALID,1010.36,VALID,0,VALID,57.6507,VALID,0,VALID,24.0837,VALID,108,VALID,0.647266,
2009-12-05, 00:54:04,VALID,1010.33,VALID,0,VALID,57.6659,VALID,0,VALID,24.1051,VALID,102,VALID,1.07695,
2009-12-05, 00:55:04,VALID,1010.33,VALID,0,VALID,57.6736,VALID,0,VALID,24.1051,VALID,93,VALID,1.00781,
2009-12-05, 00:56:04,VALID,1010.3,VALID,0,VALID,57.6964,VALID,0,VALID,24.0819,VALID,112,VALID,0.560156,
2009-12-05, 00:57:04,VALID,1010.31,VALID,0,VALID,57.6736,VALID,0,VALID,24.0819,VALID,98,VALID,0.548828,
2009-12-05, 00:58:04,VALID,1010.31,VALID,0,VALID,57.6964,VALID,0,VALID,24.0819,VALID,89,VALID,0.394922,
2009-12-05, 00:59:04,VALID,1010.28,VALID,0,VALID,57.6964,VALID,0.105969,VALID,24.1014,VALID,89,VALID,0.272656,
2009-12-05, 01:00:04,VALID,1010.27,VALID,0,VALID,57.6507,VALID,0,VALID,24.1227,VALID,89,VALID,0.521094,
2009-12-05, 01:01:04,VALID,1010.29,VALID,0,VALID,57.6812,VALID,0.105969,VALID,24.1014,VALID,112,VALID,0.417578,
2009-12-05, 01:02:04,VALID,1010.29,VALID,0,VALID,57.6659,VALID,0,VALID,24.1014,VALID,111,VALID,0,
2009-12-05, 01:03:04,VALID,1010.29,VALID,0,VALID,57.6431,VALID,0.105969,VALID,24.0819,VALID,76,VALID,0,
2009-12-05, 01:04:04,VALID,1010.28,VALID,0,VALID,57.6507,VALID,0,VALID,24.1227,VALID,76,VALID,0,
2009-12-05, 01:05:04,VALID,1010.26,VALID,0,VALID,57.6431,VALID,0.105969,VALID,24.1032,VALID,76,VALID,0,
2009-12-05, 01:06:04,VALID,1010.27,VALID,0,VALID,57.6431,VALID,0.105969,VALID,24.0819,VALID,76,VALID,0,
2009-12-05, 01:07:04,VALID,1010.24,VALID,0,VALID,57.6431,VALID,0,VALID,24.0819,VALID,89,VALID,0,
2009-12-05, 01:08:04,VALID,1010.23,VALID,0,VALID,57.6583,VALID,0.105969,VALID,24.0819,VALID,138,VALID,0.0171875,
2009-12-05, 01:09:04,VALID,1010.23,VALID,0,VALID,57.6354,VALID,0,VALID,24.0837,VALID,143,VALID,0.561719,
2009-12-05, 01:10:04,VALID,1010.22,VALID,0,VALID,57.6126,VALID,0,VALID,24.0429,VALID,135,VALID,0.745313,
2009-12-05, 01:11:04,VALID,1010.23,VALID,0,VALID,57.6431,VALID,0.105969,VALID,24.0429,VALID,128,VALID,0.560938,
2009-12-05, 01:12:04,VALID,1010.25,VALID,0,VALID,57.6126,VALID,0,VALID,24.0448,VALID,118,VALID,0.698828,
2009-12-05, 01:13:04,VALID,1010.24,VALID,0,VALID,57.6354,VALID,0,VALID,24.0235,VALID,118,VALID,0.755078,
2009-12-05, 01:14:04,VALID,1010.25,VALID,0,VALID,57.6354,VALID,0.105969,VALID,24.0429,VALID,118,VALID,0.332422,
2009-12-05, 01:15:04,VALID,1010.24,VALID,0,VALID,57.6354,VALID,0,VALID,24.0235,VALID,118,VALID,0,
2009-12-05, 01:16:04,VALID,1010.24,VALID,0,VALID,57.6659,VALID,0.105969,VALID,24.0235,VALID,118,VALID,0,
2009-12-05, 01:17:04,VALID,1010.22,VALID,0,VALID,57.6659,VALID,0,VALID,24.0235,VALID,116,VALID,0.00507812,
2009-12-05, 01:18:04,VALID,1010.21,VALID,0,VALID,57.6583,VALID,0.105969,VALID,24.0429,VALID,94,VALID,0.881641,
2009-12-05, 01:19:04,VALID,1010.23,VALID,0,VALID,57.6431,VALID,0.105969,VALID,24.0624,VALID,120,VALID,0.658984,
2009-12-05, 01:20:04,VALID,1010.25,VALID,0,VALID,57.6049,VALID,0,VALID,24.0819,VALID,139,VALID,0,
2009-12-05, 01:21:04,VALID,1010.23,VALID,0,VALID,57.5744,VALID,0.105969,VALID,24.0819,VALID,138,VALID,0,
2009-12-05, 01:22:04,VALID,1010.25,VALID,0,VALID,57.5668,VALID,0,VALID,24.0819,VALID,139,VALID,0,
2009-12-05, 01:23:04,VALID,1010.25,VALID,0,VALID,57.5439,VALID,0.105969,VALID,24.0837,VALID,139,VALID,0,
2009-12-05, 01:24:04,VALID,1010.25,VALID,0,VALID,57.4906,VALID,0,VALID,24.0837,VALID,139,VALID,0,
2009-12-05, 01:25:04,VALID,1010.27,VALID,0,VALID,57.4677,VALID,0,VALID,24.0837,VALID,138,VALID,0,
2009-12-05, 01:26:04,VALID,1010.28,VALID,0,VALID,57.4906,VALID,0,VALID,24.0624,VALID,139,VALID,0,
2009-12-05, 01:27:04,VALID,1010.26,VALID,0,VALID,57.4982,VALID,0,VALID,24.0643,VALID,116,VALID,0.599219,
2009-12-05, 01:28:04,VALID,1010.27,VALID,0,VALID,57.4982,VALID,0.105969,VALID,24.0624,VALID,106,VALID,0.416016,
2009-12-05, 01:29:04,VALID,1010.22,VALID,0,VALID,57.5211,VALID,0.105969,VALID,24.0624,VALID,106,VALID,0.305469,
2009-12-05, 01:30:04,VALID,1010.2,VALID,0,VALID,57.5287,VALID,0,VALID,24.0819,VALID,95,VALID,0.817969,
2009-12-05, 01:31:04,VALID,1010.2,VALID,0,VALID,57.4982,VALID,0,VALID,24.1227,VALID,105,VALID,0.687109,
2009-12-05, 01:32:04,VALID,1010.16,VALID,0,VALID,57.4829,VALID,0.105969,VALID,24.1014,VALID,95,VALID,1.0625,
2009-12-05, 01:33:04,VALID,1010.12,VALID,0,VALID,57.4372,VALID,0,VALID,24.1209,VALID,103,VALID,0.676562,
2009-12-05, 01:34:04,VALID,1010.13,VALID,0,VALID,57.399,VALID,0.105969,VALID,24.1209,VALID,87,VALID,0.555859,
2009-12-05, 01:35:04,VALID,1010.1,VALID,0,VALID,57.3762,VALID,0.105969,VALID,24.1209,VALID,95,VALID,0.751562,
2009-12-05, 01:36:04,VALID,1010.08,VALID,0,VALID,57.3762,VALID,0.105969,VALID,24.1617,VALID,91,VALID,0.688281,
2009-12-05, 01:37:04,VALID,1010.04,VALID,0,VALID,57.3685,VALID,0.105969,VALID,24.1617,VALID,65,VALID,0.589063,
2009-12-05, 01:38:04,VALID,1010.05,VALID,0,VALID,57.3075,VALID,0.105969,VALID,24.1617,VALID,71,VALID,0.776563,
2009-12-05, 01:39:04,VALID,1010.05,VALID,0,VALID,57.2923,VALID,0,VALID,24.1209,VALID,77,VALID,0.455469,
2009-12-05, 01:40:04,VALID,1010.08,VALID,0,VALID,57.2999,VALID,0,VALID,24.1209,VALID,68,VALID,0.101172,
2009-12-05, 01:41:04,VALID,1010.09,VALID,0,VALID,57.3304,VALID,0,VALID,24.1245,VALID,73,VALID,0,
2009-12-05, 01:42:04,VALID,1010.08,VALID,0,VALID,57.3609,VALID,0,VALID,24.1245,VALID,87,VALID,0,
2009-12-05, 01:43:04,VALID,1010.07,VALID,0,VALID,57.4067,VALID,0,VALID,24.1051,VALID,85,VALID,0,
2009-12-05, 01:44:04,VALID,1010.04,VALID,0,VALID,57.3914,VALID,0,VALID,24.1245,VALID,93,VALID,0,
2009-12-05, 01:45:04,VALID,1010.03,VALID,0,VALID,57.4296,VALID,0,VALID,24.1032,VALID,106,VALID,0,
2009-12-05, 01:46:04,VALID,1010.05,VALID,0,VALID,57.4448,VALID,0,VALID,24.1227,VALID,106,VALID,0,
2009-12-05, 01:47:04,VALID,1010.04,VALID,0,VALID,57.4829,VALID,0,VALID,24.1032,VALID,106,VALID,0,
2009-12-05, 01:48:04,VALID,1010.06,VALID,0,VALID,57.5058,VALID,0,VALID,24.1032,VALID,97,VALID,0.699219,
2009-12-05, 01:49:04,VALID,1010.06,VALID,0,VALID,57.4982,VALID,0,VALID,24.1245,VALID,110,VALID,0.763672,
2009-12-05, 01:50:04,VALID,1010.04,VALID,0,VALID,57.5058,VALID,0,VALID,24.1227,VALID,110,VALID,1.00469,
2009-12-05, 01:51:04,VALID,1010.06,VALID,0,VALID,57.5211,VALID,0,VALID,24.1245,VALID,110,VALID,0.841797,
2009-12-05, 01:52:04,VALID,1010.07,VALID,0,VALID,57.5363,VALID,0,VALID,24.1032,VALID,110,VALID,0.780078,
2009-12-05, 01:53:04,VALID,1010.05,VALID,0,VALID,57.5668,VALID,0,VALID,24.1032,VALID,109,VALID,0.588672,
2009-12-05, 01:54:04,VALID,1010.06,VALID,0,VALID,57.5744,VALID,0,VALID,24.1245,VALID,96,VALID,0.670313,
2009-12-05, 01:55:04,VALID,1010.05,VALID,0,VALID,57.6202,VALID,0,VALID,24.0837,VALID,88,VALID,1.04531,
2009-12-05, 01:56:04,VALID,1010.03,VALID,0,VALID,57.6278,VALID,0,VALID,24.1051,VALID,99,VALID,1.04609,
2009-12-05, 01:57:04,VALID,1010.07,VALID,0,VALID,57.6507,VALID,0,VALID,24.0661,VALID,103,VALID,1.05,
2009-12-05, 01:58:04,VALID,1010.07,VALID,0,VALID,57.6812,VALID,0,VALID,24.0643,VALID,110,VALID,0.919922,
2009-12-05, 01:59:04,VALID,1010.04,VALID,0,VALID,57.7041,VALID,0,VALID,24.0643,VALID,111,VALID,1.16133,
2009-12-05, 02:00:04,VALID,1010.04,VALID,0,VALID,57.7346,VALID,0,VALID,24.0661,VALID,102,VALID,0.507422,
2009-12-05, 02:01:04,VALID,1010.04,VALID,0,VALID,57.7575,VALID,0,VALID,24.0856,VALID,102,VALID,0,
2009-12-05, 02:02:04,VALID,1010.06,VALID,0,VALID,57.788,VALID,0,VALID,24.0448,VALID,118,VALID,0,
2009-12-05, 02:03:04,VALID,1010.07,VALID,0,VALID,57.8032,VALID,0,VALID,24.0856,VALID,77,VALID,0,
2009-12-05, 02:04:04,VALID,1010.06,VALID,0,VALID,57.8413,VALID,0,VALID,24.0643,VALID,68,VALID,0,
2009-12-05, 02:05:04,VALID,1010.07,VALID,0,VALID,57.8566,VALID,0,VALID,24.0448,VALID,69,VALID,0,
2009-12-05, 02:06:04,VALID,1010.05,VALID,0,VALID,57.8718,VALID,0,VALID,24.0448,VALID,69,VALID,0,
2009-12-05, 02:07:04,VALID,1010.06,VALID,0,VALID,57.8947,VALID,0,VALID,24.0253,VALID,69,VALID,0,
2009-12-05, 02:08:04,VALID,1010.03,VALID,0,VALID,57.8871,VALID,0,VALID,24.0466,VALID,86,VALID,0,
2009-12-05, 02:09:04,VALID,1010.01,VALID,0,VALID,57.9023,VALID,0,VALID,24.0466,VALID,124,VALID,0,
2009-12-05, 02:10:04,VALID,1010.01,VALID,0,VALID,57.91,VALID,0,VALID,24.0466,VALID,124,VALID,0,
2009-12-05, 02:11:04,VALID,1009.99,VALID,0,VALID,57.9481,VALID,0,VALID,24.0253,VALID,96,VALID,0,
2009-12-05, 02:12:04,VALID,1009.97,VALID,0,VALID,57.9557,VALID,0,VALID,24.0661,VALID,96,VALID,0,
2009-12-05, 02:13:04,VALID,1009.94,VALID,0,VALID,57.9634,VALID,0,VALID,24.0253,VALID,79,VALID,0.224609,
2009-12-05, 02:14:04,VALID,1009.93,VALID,0,VALID,58.0015,VALID,0,VALID,24.0448,VALID,139,VALID,0.729297,
2009-12-05, 02:15:04,VALID,1009.91,VALID,0,VALID,57.9939,VALID,0,VALID,24.0466,VALID,81,VALID,0.392578,
2009-12-05, 02:16:04,VALID,1009.88,VALID,0,VALID,57.9939,VALID,0,VALID,24.0253,VALID,79,VALID,0.326562,
2009-12-05, 02:17:04,VALID,1009.86,VALID,0,VALID,57.9862,VALID,0,VALID,24.0466,VALID,79,VALID,0.00234375,
2009-12-05, 02:18:04,VALID,1009.85,VALID,0,VALID,57.9862,VALID,0,VALID,24.0253,VALID,41,VALID,0.241406,
2009-12-05, 02:19:04,VALID,1009.85,VALID,0,VALID,57.9862,VALID,0,VALID,24.0253,VALID,15,VALID,0.565625,
2009-12-05, 02:20:04,VALID,1009.83,VALID,0,VALID,57.9634,VALID,0,VALID,24.0058,VALID,15,VALID,0.109766,
2009-12-05, 02:21:04,VALID,1009.79,VALID,0,VALID,57.971,VALID,0,VALID,24.0058,VALID,26,VALID,0.576563,
2009-12-05, 02:22:04,VALID,1009.8,VALID,0,VALID,57.9939,VALID,0,VALID,24.0076,VALID,60,VALID,0.576953,
2009-12-05, 02:23:04,VALID,1009.79,VALID,0,VALID,58.0015,VALID,0,VALID,23.9668,VALID,63,VALID,0.592188,
2009-12-05, 02:24:04,VALID,1009.8,VALID,0,VALID,58.0244,VALID,0,VALID,23.9686,VALID,66,VALID,0.562109,
2009-12-05, 02:25:04,VALID,1009.77,VALID,0,VALID,58.032,VALID,0,VALID,23.9278,VALID,66,VALID,0.476953,
2009-12-05, 02:26:04,VALID,1009.8,VALID,0,VALID,58.0625,VALID,0,VALID,23.9084,VALID,66,VALID,0.677344,
2009-12-05, 02:27:04,VALID,1009.79,VALID,0,VALID,58.0625,VALID,0,VALID,23.9278,VALID,96,VALID,0.938672,
2009-12-05, 02:28:04,VALID,1009.78,VALID,0,VALID,58.0854,VALID,0,VALID,23.9473,VALID,98,VALID,0.726953,
2009-12-05, 02:29:04,VALID,1009.78,VALID,0,VALID,58.1006,VALID,0,VALID,23.9278,VALID,95,VALID,0.635547,
2009-12-05, 02:30:04,VALID,1009.77,VALID,0,VALID,58.1159,VALID,0,VALID,23.9491,VALID,112,VALID,1.0207,
2009-12-05, 02:31:04,VALID,1009.75,VALID,0,VALID,58.1311,VALID,0,VALID,23.9278,VALID,113,VALID,0.901172,
2009-12-05, 02:32:04,VALID,1009.78,VALID,0,VALID,58.1082,VALID,0,VALID,23.9278,VALID,119,VALID,0.323828,
2009-12-05, 02:33:04,VALID,1009.77,VALID,0,VALID,58.1235,VALID,0,VALID,23.9473,VALID,142,VALID,0.614844,
2009-12-05, 02:34:04,VALID,1009.76,VALID,0,VALID,58.1311,VALID,0,VALID,23.9278,VALID,140,VALID,0.96875,
2009-12-05, 02:35:04,VALID,1009.78,VALID,0,VALID,58.1235,VALID,0,VALID,23.9278,VALID,137,VALID,0.882813,
2009-12-05, 02:36:04,VALID,1009.77,VALID,0,VALID,58.1159,VALID,0,VALID,23.9084,VALID,140,VALID,1.01758,
2009-12-05, 02:37:04,VALID,1009.74,VALID,0,VALID,58.1006,VALID,0,VALID,23.8889,VALID,132,VALID,1.24375,
2009-12-05, 02:38:04,VALID,1009.75,VALID,0,VALID,58.1006,VALID,0,VALID,23.8889,VALID,127,VALID,0.827344,
2009-12-05, 02:39:04,VALID,1009.74,VALID,0,VALID,58.1006,VALID,0,VALID,23.8889,VALID,104,VALID,0.757031,
2009-12-05, 02:40:04,VALID,1009.72,VALID,0,VALID,58.0854,VALID,0,VALID,23.9102,VALID,133,VALID,1.0668,
2009-12-05, 02:41:04,VALID,1009.69,VALID,0,VALID,58.0854,VALID,0.105969,VALID,23.8889,VALID,135,VALID,1.28672,
2009-12-05, 02:42:04,VALID,1009.69,VALID,0,VALID,58.1082,VALID,0.105969,VALID,23.8676,VALID,141,VALID,1.20234,
2009-12-05, 02:43:04,VALID,1009.68,VALID,0,VALID,58.1082,VALID,0.105969,VALID,23.8871,VALID,126,VALID,0.762891,
2009-12-05, 02:44:04,VALID,1009.65,VALID,0,VALID,58.1464,VALID,0.105969,VALID,23.8676,VALID,108,VALID,0.390234,
2009-12-05, 02:45:04,VALID,1009.66,VALID,0,VALID,58.1616,VALID,0,VALID,23.9084,VALID,111,VALID,0.792578,
2009-12-05, 02:46:04,VALID,1009.64,VALID,0,VALID,58.1921,VALID,0,VALID,23.8871,VALID,101,VALID,1.6168,
2009-12-05, 02:47:04,VALID,1009.69,VALID,0,VALID,58.1845,VALID,0.105969,VALID,23.8889,VALID,131,VALID,0.8,
2009-12-05, 02:48:04,VALID,1009.66,VALID,0,VALID,58.154,VALID,0,VALID,23.9084,VALID,135,VALID,0.683594,
2009-12-05, 02:49:04,VALID,1009.68,VALID,0,VALID,58.154,VALID,0.105969,VALID,23.8676,VALID,130,VALID,0.539844,
2009-12-05, 02:50:04,VALID,1009.69,VALID,0,VALID,58.1616,VALID,0,VALID,23.8889,VALID,132,VALID,0.847266,
2009-12-05, 02:51:04,VALID,1009.69,VALID,0,VALID,58.1692,VALID,0,VALID,23.8694,VALID,142,VALID,1.22812,
2009-12-05, 02:52:04,VALID,1009.71,VALID,0,VALID,58.1692,VALID,0,VALID,23.8694,VALID,131,VALID,0.782812,
2009-12-05, 02:53:04,VALID,1009.7,VALID,0,VALID,58.1921,VALID,0,VALID,23.8499,VALID,151,VALID,1.01719,
2009-12-05, 02:54:04,VALID,1009.69,VALID,0,VALID,58.1769,VALID,0.105969,VALID,23.8499,VALID,134,VALID,0.930859,
2009-12-05, 02:55:04,VALID,1009.69,VALID,0,VALID,58.1921,VALID,0.105969,VALID,23.8286,VALID,144,VALID,0.903516,
2009-12-05, 02:56:04,VALID,1009.7,VALID,0,VALID,58.2074,VALID,0,VALID,23.8499,VALID,131,VALID,1.1332,
2009-12-05, 02:57:04,VALID,1009.69,VALID,0,VALID,58.2379,VALID,0.105969,VALID,23.8091,VALID,129,VALID,1.18242,
2009-12-05, 02:58:04,VALID,1009.72,VALID,0,VALID,58.2226,VALID,0,VALID,23.8304,VALID,126,VALID,0.726563,
2009-12-05, 02:59:04,VALID,1009.74,VALID,0,VALID,58.2455,VALID,0.105969,VALID,23.8304,VALID,128,VALID,1.14805,
2009-12-05, 03:00:04,VALID,1009.76,VALID,0,VALID,58.2531,VALID,0.105969,VALID,23.8109,VALID,140,VALID,1.02969,
2009-12-05, 03:01:04,VALID,1009.8,VALID,0,VALID,58.276,VALID,0,VALID,23.8091,VALID,135,VALID,0.699219,
2009-12-05, 03:02:04,VALID,1009.79,VALID,0,VALID,58.2913,VALID,0,VALID,23.7896,VALID,125,VALID,0.885938,
2009-12-05, 03:03:04,VALID,1009.82,VALID,0,VALID,58.2989,VALID,0,VALID,23.7896,VALID,142,VALID,0.700391,
2009-12-05, 03:04:04,VALID,1009.86,VALID,0,VALID,58.337,VALID,0.105969,VALID,23.8109,VALID,175,VALID,1.06602,
2009-12-05, 03:05:04,VALID,1009.83,VALID,0,VALID,58.337,VALID,0.105969,VALID,23.7701,VALID,161,VALID,0.560938,
2009-12-05, 03:06:04,VALID,1009.81,VALID,0,VALID,58.3599,VALID,0.105969,VALID,23.7914,VALID,130,VALID,1.025,
2009-12-05, 03:07:04,VALID,1009.81,VALID,0,VALID,58.3904,VALID,0,VALID,23.772,VALID,144,VALID,0.876562,
2009-12-05, 03:08:04,VALID,1009.84,VALID,0,VALID,58.3904,VALID,0.105969,VALID,23.772,VALID,148,VALID,0.550781,
2009-12-05, 03:09:04,VALID,1009.8,VALID,0,VALID,58.4285,VALID,0.105969,VALID,23.7525,VALID,155,VALID,1.45234,
2009-12-05, 03:10:04,VALID,1009.82,VALID,0,VALID,58.4361,VALID,0,VALID,23.772,VALID,151,VALID,0.748047,
2009-12-05, 03:11:04,VALID,1009.83,VALID,0,VALID,58.4514,VALID,0.105969,VALID,23.7507,VALID,143,VALID,0.841406,
2009-12-05, 03:12:04,VALID,1009.83,VALID,0,VALID,58.4438,VALID,0.105969,VALID,23.7507,VALID,153,VALID,1.15273,
2009-12-05, 03:13:04,VALID,1009.84,VALID,0,VALID,58.4667,VALID,0.105969,VALID,23.772,VALID,134,VALID,0.663672,
2009-12-05, 03:14:04,VALID,1009.82,VALID,0,VALID,58.4972,VALID,0.105969,VALID,23.7507,VALID,151,VALID,0.738672,
2009-12-05, 03:15:05,VALID,1009.83,VALID,0,VALID,58.4972,VALID,0.105969,VALID,23.772,VALID,139,VALID,0.541797,
2009-12-05, 03:16:05,VALID,1009.83,VALID,0,VALID,58.5048,VALID,0,VALID,23.7312,VALID,172,VALID,0.880469,
2009-12-05, 03:17:05,VALID,1009.82,VALID,0,VALID,58.5048,VALID,0.105969,VALID,23.772,VALID,163,VALID,1.02422,
2009-12-05, 03:18:05,VALID,1009.83,VALID,0,VALID,58.5277,VALID,0.105969,VALID,23.7312,VALID,178,VALID,0.490234,
2009-12-05, 03:19:05,VALID,1009.84,VALID,0,VALID,58.5277,VALID,0.105969,VALID,23.7525,VALID,155,VALID,0.600781,
2009-12-05, 03:20:05,VALID,1009.82,VALID,0,VALID,58.5277,VALID,0.105969,VALID,23.7312,VALID,165,VALID,0.155469,
2009-12-05, 03:21:05,VALID,1009.84,VALID,0,VALID,58.5429,VALID,0.105969,VALID,23.7117,VALID,178,VALID,0.730469,
2009-12-05, 03:22:05,VALID,1009.84,VALID,0,VALID,58.5429,VALID,0.105969,VALID,23.733,VALID,183,VALID,0.187109,
2009-12-05, 03:23:05,VALID,1009.85,VALID,0,VALID,58.5353,VALID,0.105969,VALID,23.7117,VALID,183,VALID,0.248437,
2009-12-05, 03:24:05,VALID,1009.83,VALID,0,VALID,58.5353,VALID,0.105969,VALID,23.6922,VALID,160,VALID,0.878906,
2009-12-05, 03:25:05,VALID,1009.8,VALID,0,VALID,58.5505,VALID,0.105969,VALID,23.6922,VALID,165,VALID,0.299219,
2009-12-05, 03:26:05,VALID,1009.8,VALID,0,VALID,58.5505,VALID,0.105969,VALID,23.6727,VALID,160,VALID,0.736328,
2009-12-05, 03:27:05,VALID,1009.77,VALID,0,VALID,58.5582,VALID,0.105969,VALID,23.6727,VALID,121,VALID,0.53125,
2009-12-05, 03:28:05,VALID,1009.74,VALID,0,VALID,58.5734,VALID,0.105969,VALID,23.694,VALID,125,VALID,0.876562,
2009-12-05, 03:29:05,VALID,1009.75,VALID,0,VALID,58.5658,VALID,0.105969,VALID,23.6727,VALID,138,VALID,0.892578,
2009-12-05, 03:30:05,VALID,1009.72,VALID,0,VALID,58.5658,VALID,0.105969,VALID,23.6727,VALID,124,VALID,0.827344,
2009-12-05, 03:31:05,VALID,1009.7,VALID,0,VALID,58.5582,VALID,0.105969,VALID,23.6922,VALID,117,VALID,1.36875,
2009-12-05, 03:32:05,VALID,1009.67,VALID,0,VALID,58.5658,VALID,0.105969,VALID,23.6922,VALID,107,VALID,0.878906,
2009-12-05, 03:33:05,VALID,1009.67,VALID,0,VALID,58.5734,VALID,0.105969,VALID,23.7117,VALID,117,VALID,1.08125,
2009-12-05, 03:34:05,VALID,1009.66,VALID,0,VALID,58.5658,VALID,0.105969,VALID,23.7117,VALID,118,VALID,0.732813,
2009-12-05, 03:35:05,VALID,1009.66,VALID,0,VALID,58.5429,VALID,0.105969,VALID,23.7117,VALID,111,VALID,1.21602,
2009-12-05, 03:36:05,VALID,1009.66,VALID,0,VALID,58.5429,VALID,0.105969,VALID,23.7117,VALID,108,VALID,0.997656,
2009-12-05, 03:37:05,VALID,1009.66,VALID,0,VALID,58.5582,VALID,0.105969,VALID,23.7117,VALID,121,VALID,0.870313,
2009-12-05, 03:38:05,VALID,1009.68,VALID,0,VALID,58.5353,VALID,0,VALID,23.6922,VALID,145,VALID,0.9625,
2009-12-05, 03:39:05,VALID,1009.7,VALID,0,VALID,58.5353,VALID,0.105969,VALID,23.6727,VALID,136,VALID,0.783203,
2009-12-05, 03:40:05,VALID,1009.7,VALID,0,VALID,58.5353,VALID,0.105969,VALID,23.6745,VALID,148,VALID,1.06914,
2009-12-05, 03:41:05,VALID,1009.73,VALID,0,VALID,58.5429,VALID,0,VALID,23.6356,VALID,145,VALID,0.827734,
2009-12-05, 03:42:05,VALID,1009.74,VALID,0,VALID,58.5582,VALID,0,VALID,23.6161,VALID,153,VALID,0.784375,